Погода Нижняя Пеша

Погода Нижняя Пеша : погода сейчас, прогноз погоды и архив. Всё, что Вы хотите узнать о погоде Нижняя Пеша!

Поиск расширенной информации на нашем сайте:

Другие новости

Новости СМИ2

Главная страница сайта

Новости сайта

03.07.2017

Напоминаем, что на нашем специализированном сайте Метеоцентр.Азия вы можете получить высокодетализированные автоматические прогнозы погоды по пунктам России, СНГ и мира в авиационном формате (включающие направление и скорость ветра, видимость, явления погоды, количество и форму облачности, нижнюю и верхнюю границу облачности).


Погода Нижняя Пеша - сегодня

Время (UTC), дата Ветер
(°,м/с) 
Видим.   Явления Облачность Т
(°С)
Тd
(°С)
f(%) Тe
(°С)
Pmin
(гПа)
dP
(гПа)
Po
(мм)
O2
(г/м3)
Тmin Tmax R s Состояние
почвы
15 12.10.17 140 (ЮВ) 2000 м  дымка  10/10 60 м 
[St]
+3.7 +3.5 99 +2  1015.2  0.4  760  302    +4.6  0.8     
06 13.10.17 110 (В) 0500 м  туман  ?/?  
+1 +1 100 1015.2  760  305  +0.1         
09 13.10.17 110 (В) 20000 м  {туман}  9/1 200 м средняя, верхняя 
[St|Ac trans|Ci fib]
+3.8 +3.1 95 +3  1014.9  -0.3  760  302           
12 13.10.17 110 (В) 20000 м    9/0 средняя, верхняя 
[Ac trans|Ci fib]
+5 +3.8 92 +5  1015.2  0.3  760  300           
15 13.10.17 100 (В) 10 км    9/0 средняя 
[Ac trans]
+3.7 +3 95 +3  1015.2  760  302    +5.2       
06 14.10.17 080 (В) 20000 м    10/10 450 м 
[Sc]
+1 +0.5 96 +2  1016.2  761  305  -0.4         
09 14.10.17 080 (В) 20000 м    10/10 420 м 
[Sc]
+1.4 +0.6 94 +1  1016.2  761  305           
12 14.10.17 090 (В) 20000 м    10/10 270 м 
[St]
+1.5 +0.1 90 +2  1015.8  -0.4  761  305           
15 14.10.17 110 (В) 10 км    10/10 210 м 
[St]
+1.7 +0.1 89 +2  1015.7  -0.1  761  305    +3.8       
06 15.10.17 120 (ЮВ) 20000 м    10/10 150 м 
[St]
-0.4 -1.3 94 -3  1012.1  758  306  -1.2         
09 15.10.17 090 (В) 20000 м    10/10 210 м 
[St]
+1.2 -0.8 86 -1  1012.3  0.2  758  304           
12 15.10.17 090 (В) 20000 м    10/10 270 м 
[St]
+2.3 +0.4 87 1011.7  -0.6  758  303           
15 15.10.17 090 (В) 4{10}  10 км    10/10 360 м 
[St]
+2.9 +0.8 86 +1  1011.7  758  302    +2.9       
06 16.10.17 140 (ЮВ) 20000 м  в посл. час ливневой дождь  10/10 150 м кучево-дожд. 
[Cb cap]
+0.6 +0.1 96 -2  1010.4  757  304  +0.1       
09 16.10.17 140 (ЮВ) 20000 м    10/10 150 м 
[St]
+1.5 +1 96 -1  1009.8  -0.6  756  303           
12 16.10.17 140 (ЮВ) 10 км  слаб. ливневой дождь  10/10 150 м кучево-дожд. 
[Cb cap]
+2 +1.5 96 -1  1008.3  -1.5  755  302           
15 16.10.17 140 (ЮВ) 0500 м  туман  ?/? 100 
+2.6 +2.6 100 1006.4  -1.9  754  300    +2.6  0.6     
18 16.10.17 140 (ЮВ) 2000 м  дымка{туман}  10/10 100 м 
[St]
+4 +4 100 +2  1003.3  -3.1  751  298           
21 16.10.17 140 (ЮВ) 10 км    10/10 400 м 
[St]
+5.1 +4.9 99 +3  1000.2  -3.1  749  295           
00 17.10.17 150 (ЮВ) 2000 м  в посл. час ливневой дождь  10/10 210 м кучево-дожд. 
[Cb cap]
+6.1 +5.9 99 +5  997  -3.2  746  293           
03 17.10.17 140 (ЮВ) 6{10}  10 км  {ливн. осадки}  9/9 1470 м 
[Sc]
+5.1 +3.4 89 +3  993.9  -3  744  294  +2.4    0.7    влажная 
06 17.10.17 130 (ЮВ) 5{10}  4000 м  дождь{ливн. осадки}  10/10 270 м 
[Frnb|Ns]
+5.1 +4.2 94 +3  992.1  -1.8  743  293           
09 17.10.17 140 (ЮВ) 20000 м  в посл. час дождь  10/10 500 м 
[Sc]
+5.7 +4.3 91 +3  990.9  -1.2  742  292           
12 17.10.17 110 (В) 4000 м  ливневой дождь  10/10 270 м кучево-дожд. 
[Cb cap]
+5.7 +4.3 91 +4  990  -0.9  741  292           
15 17.10.17 070 (В) 2000 м  ливневой дождь  10/10 300 м кучево-дожд. 
[Cb cap]
+4.3 +3.3 93 +3  989.5  -0.5  741  293    +5.9     
Время (UTC), дата Ветер
(°,м/с) 
Видим.   Явления Облачность Т
(°С)
Тd
(°С)
f(%) Тe
(°С)
Pmin
(гПа)
dP
(гПа)
Po
(мм)
O2
(г/м3)
Тmin Tmax R s Состояние
почвы

Для получения пояснительной информации подведите курсор к названию столбца.

ПОГОДА Нижняя Пеша - архив

Всё, что Вы хотите узнать о погоде Нижняя Пеша - удобно и подробно!

Выберите нужную дату (начиная с 1 января 2015* года) и нажмите кнопку "Найти".
Будут отображены архивные сводки погоды по пункту Нижняя Пеша, начиная с указанной даты.


Отображать данные в формате CSV (для использования в таблицах Excel)


Внимание! Наш архив погоды предназначен исключительно для личного некоммерческого использования в познавательных целях. Если Вам необходимы официальные справки о состоянии погоды (для производственных, юридических, коммерческих и т.п. целей), обращайтесь в органы Росгидромета.

*Примечание: данная дата относится к архиву по метеостанциям СССР (Россия, СНГ, Балтия).
Архив по метеостанциям Зарубежной Европы и Азии (кроме Китая) хранится 10 дней, по другим регионам земного шара (Китай, Африка, Америка, Австралия, Океания) - 1 день.

Нижняя Пеша - район местоположения метеостанции


Название, широта, долгота, высота метеостанции:
Нижняя Пеша 66.8°ш. 47.8°д. 9 м над ур. моря [Российская Федерация]

Дополнительная информация

В oтличие oт бoльшинства пoгoдных сайтoв мы публикуем пoдрoбную метеoинфoрмацию в детальнoм прoфессиoнальнoм фoрмате.

Характеристики температуры и влажнoсти вoздуха измеряются на высoте 2 м в тени вдали oт зданий и деревьев.
Скoрoсть ветра измеряется на высoте 10 м (на урoвне рoста челoвека скoрoсть ветра ниже в 1.5-2 раза). Если метеoстанция нахoдится в гoрoде или в лесу, тo скoрoсть ветра занижена на 2-4 м/с пo сравнению с oткрытым местoм. Скoрoсть ветра над акватoриями крупных рек и oзёр, а также на вершинах хoлмoв на 2-5 м/с выше, чем в oбычных услoвиях.
Атмoсфернoе давление в разных тoчках местнoсти мoжет значительнo oтличаться oт давления на метеoстанции, в зависимoсти oт услoвий рельефа (при пoдъёме на 10 м давление пoнижается примернo на 1 мм рт.ст.).